FW2825 Weather Reports


time (UTC)temp
C
wind
direction
speed
KPH
gust
KPH
rain 1hr
cm
rain 24hr
cm
rain mn
cm
humidity
%
barometer
mb
20260506184616 15 360 0.0 0.0 0.05 0.20 0.20 93 1006.6
20260506183006 16 360 0.0 0.0 0.05 0.15 0.15 93 1006.4
20260506181607 16 360 0.0 0.0 0.10 0.15 0.15 92 1006.7
20260506180112 16 360 0.0 1.6 0.15 0.15 0.15 92 1006.4
20260506174619 16 360 0.0 0.0 0.15 0.15 0.15 91 1006.6
20260506173125 17 360 0.0 0.0 0.10 0.10 0.10 89 1006.8
20260506171614 18 360 0.0 0.0 0.03 0.03 0.03 86 1007.1
20260506170114 18 360 0.0 0.0 0.00 0.00 0.00 82 1007.2
20260506164620 19 360 0.0 0.0 0.00 0.00 0.00 79 1007.2
20260506163108 19 360 0.0 0.0 0.00 0.00 0.00 77 1007.2
20260506161612 19 360 0.0 9.7 0.00 0.00 0.00 76 1007.4
20260506160116 18 360 0.0 0.0 0.00 0.00 0.00 77 1007.7
20260506154604 18 360 0.0 0.0 0.00 0.00 0.00 80 1007.9
20260506153108 18 360 0.0 0.0 0.00 0.00 0.00 79 1008.1
20260506151616 18 360 0.0 0.0 0.00 0.00 0.00 79 1008.4
20260506150120 17 360 0.0 0.0 0.00 0.00 0.00 80 1008.5
20260506144609 17 360 0.0 0.0 0.00 0.00 0.00 80 1008.4
20260506143112 17 360 0.0 0.0 0.00 0.00 0.00 81 1008.7
20260506141504 17 360 0.0 0.0 0.00 0.00 0.00 81 1008.5
20260506140105 17 360 0.0 4.8 0.00 0.00 0.00 81 1008.7
20260506134620 17 360 0.0 0.0 0.00 0.00 0.00 82 1008.4
20260506133117 16 360 0.0 0.0 0.00 0.00 0.00 83 1008.4
20260506131613 16 360 0.0 0.0 0.00 0.00 0.00 84 1008.5
20260506130112 16 360 0.0 0.0 0.00 0.00 0.00 85 1008.7
20260506124618 15 360 0.0 0.0 0.00 0.00 0.00 86 1008.8
20260506123120 15 360 0.0 0.0 0.00 0.00 0.00 86 1009.0
20260506121609 15 360 0.0 0.0 0.00 0.00 0.00 88 1009.1
20260506120114 14 360 0.0 0.0 0.00 0.00 0.00 88 1009.0
20260506114506 14 360 0.0 0.0 0.00 0.00 0.00 89 1008.9
20260506113105 13 360 0.0 0.0 0.00 0.00 0.00 90 1009.1
20260506111627 13 360 0.0 0.0 0.00 0.00 0.00 91 1009.0
20260506110123 13 360 0.0 0.0 0.00 0.00 0.00 93 1009.2
20260506104607 12 360 0.0 0.0 0.00 0.00 0.00 93 1009.4
20260506103113 12 360 0.0 0.0 0.00 0.00 0.00 93 1009.3
20260506101506 12 360 0.0 0.0 0.00 0.00 0.00 92 1008.9
20260506100106 12 360 0.0 0.0 0.00 0.00 0.00 92 1009.0
20260506094611 12 360 0.0 0.0 0.00 0.00 0.00 90 1009.0
20260506093117 12 360 0.0 0.0 0.00 0.00 0.00 90 1009.1
20260506091621 12 360 0.0 0.0 0.00 0.00 0.00 90 1009.0
20260506090107 12 360 0.0 0.0 0.00 0.00 0.00 90 1009.0
20260506084613 12 360 0.0 0.0 0.00 0.00 0.00 90 1009.0
20260506083005 12 360 0.0 0.0 0.00 0.00 0.00 90 1009.2
20260506081606 12 360 0.0 0.0 0.00 0.00 0.00 90 1009.1
20260506080117 12 360 0.0 0.0 0.00 0.00 0.00 90 1009.1
20260506073004 12 360 0.0 0.0 0.00 0.00 0.00 87 1008.9
20260506071606 12 360 0.0 0.0 0.00 0.00 0.00 87 1009.1
20260506070127 12 360 0.0 0.0 0.00 0.00 0.00 85 1009.0
20260506061611 14 360 0.0 0.0 0.00 0.00 0.00 81 1008.7
20260506060120 14 360 0.0 0.0 0.00 0.00 0.00 80 1008.7
20260506050117 15 360 0.0 0.0 0.00 0.00 0.00 77 1009.0
20260506044612 15 360 0.0 0.0 0.00 0.00 0.00 76 1009.1
20260506043116 15 360 0.0 0.0 0.00 0.00 0.00 75 1009.0
20260506041623 16 360 0.0 0.0 0.00 0.00 0.00 74 1009.1
20260506040107 16 360 0.0 0.0 0.00 0.00 0.00 73 1009.1
20260506034616 16 360 0.0 0.0 0.00 0.00 0.00 72 1009.1
20260506033014 16 360 0.0 0.0 0.00 0.00 0.00 71 1009.1
20260506031610 16 360 0.0 0.0 0.00 0.00 0.00 70 1009.1
20260506030113 17 360 0.0 0.0 0.00 0.00 0.00 69 1009.1
20260506024622 17 360 0.0 1.6 0.00 0.00 0.00 68 1009.2
20260506023107 17 360 0.0 0.0 0.00 0.00 0.00 67 1009.1
20260506021612 17 360 0.0 0.0 0.00 0.00 0.00 67 1008.9
20260506020116 18 360 0.0 0.0 0.00 0.00 0.00 67 1008.8
20260506014614 18 360 0.0 0.0 0.00 0.00 0.00 66 1008.7
20260506013113 18 360 0.0 0.0 0.00 0.00 0.00 65 1008.6
20260506011636 18 360 0.0 0.0 0.00 0.00 0.00 64 1008.5
20260506010104 19 360 0.0 0.0 0.00 0.00 0.00 62 1008.3
20260506004613 20 360 0.0 0.0 0.00 0.00 0.00 61 1008.2
20260506003116 20 360 0.0 0.0 0.00 0.00 0.00 60 1007.9
20260506001605 20 360 0.0 0.0 0.00 0.00 0.00 59 1007.7
20260506000123 21 360 1.6 16.1 0.00 0.00 0.00 58 1007.3
20260505234617 21 360 0.0 1.6 0.00 0.00 0.00 57 1006.9
20260505233120 21 360 0.0 6.4 0.00 0.00 0.00 55 1006.6
20260505231615 22 360 0.0 3.2 0.00 0.00 0.00 54 1006.4
20260505230116 22 360 0.0 1.6 0.00 0.00 0.00 53 1006.1
20260505224604 23 360 0.0 9.7 0.00 0.00 0.00 52 1006.1
20260505223107 23 360 0.0 20.9 0.00 0.00 0.00 50 1005.9
20260505221618 24 360 0.0 22.5 0.00 0.00 0.00 48 1005.7
20260505220117 25 360 0.0 17.7 0.00 0.00 0.00 47 1005.5
20260505214605 25 360 1.6 19.3 0.00 0.00 0.00 45 1005.4
20260505213111 25 360 0.0 24.1 0.00 0.00 0.00 45 1005.0
20260505211617 26 360 0.0 1.6 0.00 0.00 0.00 46 1005.0
20260505210006 26 360 0.0 24.1 0.00 0.00 0.00 45 1005.0
20260505204607 26 18 0.0 19.3 0.00 0.00 0.00 44 1004.9
20260505203122 26 360 3.2 20.9 0.00 0.00 0.00 44 1005.0
20260505201506 26 360 0.0 14.5 0.00 0.00 0.00 44 1005.0
20260505200107 26 360 0.0 12.9 0.00 0.00 0.00 44 1005.1
20260505194620 27 360 0.0 20.9 0.00 0.00 0.00 41 1005.0
20260505193119 27 360 1.6 20.9 0.00 0.00 0.00 39 1005.1
20260505191507 28 360 0.0 9.7 0.00 0.00 0.00 33 1005.2
20260505190107 28 360 3.2 25.7 0.00 0.00 0.00 33 1005.2